Location: Bosler Junction
(41.5528°N, 105.6814°W)
Time: 18:02:25
(UTC+00:00)

Tiangong - Visible Passes

Search period start: 22 January 2022 00:00
Search period end: 01 February 2022 00:00
Orbit: 383 x 386 km, 41.5° (Epoch: 22 January)

Date Brightness Start Highest point End Pass type
(mag) Time Alt. Az. Time Alt. Az. Time Alt. Az.
26 Jan 4.1 02:26:40 10° SW 02:27:02 12° SSW 02:27:02 12° SSW visible
27 Jan 3.0 01:27:39 10° SSW 01:29:49 17° SSE 01:30:21 17° SE visible
28 Jan 2.3 02:03:32 10° SW 02:05:48 34° SSW 02:05:48 34° SSW visible
29 Jan 2.5 01:04:06 10° SW 01:06:51 27° SSE 01:08:57 14° ESE visible
29 Jan 4.0 02:40:18 10° WSW 02:41:10 17° WSW 02:41:10 17° WSW visible
30 Jan 1.2 01:40:31 10° WSW 01:43:38 61° SSE 01:44:15 48° ESE visible
31 Jan 2.5 02:17:22 10° W 02:19:30 39° W 02:19:30 39° W visible
